Regional Weather Roundup
Issued by NWS Newport/Morehead, NC

Current Version | Previous Version | Text Only | Print | Product List | Glossary On
Versions: 1 2 3 4 5 6 7 8 9 10 11 12 13 14 15 16 17 18 19 20 21 22 23 24 25 26 27 28 29 30 31 32 33 34 35 36 37 38 39 40 41 42 43 44 45 46 47 48 49 50
000 ASUS42 KMHX 231725 RWRMHX WEATHER ROUNDUP FOR EASTERN NORTH CAROLINA NATIONAL WEATHER SERVICE NEWPORT/MOREHEAD CITY NC 100 PM EDT MON OCT 23 2017 NOTE: "FAIR" INDICATES FEW OR NO CLOUDS BELOW 12,000 FEET WITH NO SIGNIFICANT WEATHER AND/OR OBSTRUCTIONS TO VISIBILITY NCZ015>017-031-032-045>047-102-103-231800- NORTH COAST CITY SKY/WX TMP DP RH WIND PRES REMARKS EDENTON MOSUNNY 82 66 58 S10G18 30.11F ELIZABETH CITY SUNNY 80 65 59 E14 30.12F KITTY HAWK SUNNY 79 62 56 SE8 30.13F MANTEO MOSUNNY N/A N/A N/A S14G21 30.14F $$ NCZ045>047-081-094-103-104-231800- CENTRAL COAST CITY SKY/WX TMP DP RH WIND PRES REMARKS FRISCO PTSUNNY 80 70 71 SE14 30.14F $$ NCZ095-097-098-100-101-231800- SOUTHERN COAST CITY SKY/WX TMP DP RH WIND PRES REMARKS BEAUFORT MOSUNNY 78 68 71 SE12G20 30.11F CEDAR ISLAND NOT AVBL JACKSONVILLE CLOUDY 79 66 64 SE17G26 30.09F PINEY ISLAND N/A N/A N/A N/A S12G22 30.11F WILMINGTON CLOUDY 79 64 60 SE10G22 30.09F $$ NCZ011>013-027>030-043-044-078>080-089-090>093-098-231800- COASTAL PLAIN CITY SKY/WX TMP DP RH WIND PRES REMARKS AHOSKIE PTSUNNY 77 62 59 SE12G20 30.09F CLINTON CLOUDY 81 67 63 SE7 30.06F ELIZABETHTOWN NOT AVBL GOLDSBORO CLOUDY 81 63 55 SE12G24 30.06F GREENVILLE CLOUDY 79 63 57 S12 30.10F HAVELOCK CLOUDY 79 67 66 S16G26 30.11F KENANSVILLE CLOUDY 79 61 53 SE8G23 30.08F KINSTON CLOUDY 81 57 44 S18G26 30.09F NEW BERN CLOUDY 78 65 63 S9G21 30.11F RICHLANDS CLOUDY 78 65 63 SE12G23 30.10F ROCKY MOUNT CLOUDY 78 65 63 S10G18 30.07F WASHINGTON MOSUNNY 79 65 63 SE12 30.09F WHITEVILLE CLOUDY 77 66 67 SE9 30.06F $$ AMZ130-135-150-152-154-156-158-170-250-252-270-ANZ085-086-088-633-658-670-231800- MARINE OBSERVATIONS STATION/POSITION TIME TEMP WIND PRES WAVE SWELL AIR SEA DIR/SP/G HT/PER HT/PER (UTC) (F) (DEG/KT/KT) (MB) (FT/S) (FT/S) CHESAPEAKE LIGHT NOT AVBL 64 E VA BEACH 1650 72 69 160/ 8/ 8 1022.0 3/ 5 3/ 5 DUCK 1700 74 70 130/ 12/ 13 1020.1 2 E DUCK 1700 71 N/A 3/ 8 OREGON INLET 1700 75 71 100/ 5/ 9 1020.5 13E OREGON INLT 1648 72 N/A 3/ 8 3/ 8 HATTERAS CG 1700 78 73 150/ 14/ 20 1020.0 DIAMOND BUOY 1650 78 81 150/ 19/ 25 1020.0 4/ 8 2/ 8 CAPE LOOKOUT 1700 76 150/ 13/ 15 1019.3 BEAUFORT LAB 1700 77 73 160/ 10/ 13 1019.5 30 SE NEW RVR IN 1708 77 180/ 16/ 19 1019.0 30 SE NEW RVR IN NOT AVBL 27 SE WRIGHTSVLE 1708 77 76 150/ 14/ 19 1018.7 5 SE WRIGHTSVLE 1708 76 74 160/ 14/ 19 1018.5 225 S CAPE HAT 1650 78 80 130/ 17/ 19 1020.7 5/ 8 2/ 8 41 SE CHARLESTON 1710 80 80 160/ 21/ 27 1016.2 $$

USA.gov is the U.S. government's official web portal to all federal, state and local government web resources and services.